Radioactive Concentration measured by Seawater Radiation Monitor near Fukushima Daiichi Nuclear Power Station
Date,Time,Cs137(Bq/L),Cs134(Bq/L),Total β(Bq/L)
2018/03/06,00:00,1.3,0.11,ND
2018/03/06,00:10,1.3,0.11,ND
2018/03/06,00:20,1.3,0.12,ND
2018/03/06,00:30,1.3,0.12,ND
2018/03/06,00:40,1.3,0.12,ND
2018/03/06,00:50,1.3,0.12,ND
2018/03/06,01:00,1.3,0.11,ND
2018/03/06,01:10,1.3,0.11,ND
2018/03/06,01:20,1.3,0.093,ND
2018/03/06,01:30,1.3,0.089,ND
2018/03/06,01:40,1.3,0.078,ND
2018/03/06,01:50,1.2,0.082,ND
2018/03/06,02:00,1.2,0.084,ND
2018/03/06,02:10,1.2,0.090,ND
2018/03/06,02:20,1.2,0.089,ND
2018/03/06,02:30,1.2,0.089,ND
2018/03/06,02:40,1.2,0.092,ND
2018/03/06,02:50,1.2,0.085,ND
2018/03/06,03:00,1.2,0.074,ND
2018/03/06,03:10,1.2,0.077,9.7
2018/03/06,03:20,1.2,0.079,12
2018/03/06,03:30,1.2,0.071,8.9
2018/03/06,03:40,1.2,0.070,ND
2018/03/06,03:50,1.2,0.069,8.9
2018/03/06,04:00,1.2,0.085,ND
2018/03/06,04:10,1.2,0.075,ND
2018/03/06,04:20,1.2,0.072,ND
2018/03/06,04:30,1.2,0.069,ND
2018/03/06,04:40,1.2,0.067,11
2018/03/06,04:50,1.2,0.063,11
2018/03/06,05:00,1.2,0.057,15
2018/03/06,05:10,1.2,0.060,13
2018/03/06,05:20,1.2,0.060,12
2018/03/06,05:30,1.2,0.073,11
2018/03/06,05:40,1.2,0.073,ND
2018/03/06,05:50,1.2,0.075,ND
2018/03/06,06:00,1.2,0.080,ND
2018/03/06,06:10,1.2,0.069,ND
2018/03/06,06:20,1.2,0.073,ND
2018/03/06,06:30,1.2,0.068,ND
2018/03/06,06:40,1.2,0.070,ND
2018/03/06,06:50,1.2,0.080,ND
2018/03/06,07:00,1.2,0.084,ND
2018/03/06,07:10,1.2,0.093,ND
2018/03/06,07:20,1.2,0.11,ND
2018/03/06,07:30,1.2,0.11,ND
2018/03/06,07:40,1.2,0.096,ND
2018/03/06,07:50,1.2,0.094,ND
2018/03/06,08:00,1.3,0.087,ND
2018/03/06,08:10,1.3,0.087,ND
2018/03/06,08:20,1.3,0.079,ND
2018/03/06,08:30,1.3,0.062,ND
2018/03/06,08:40,1.3,0.090,9.5
2018/03/06,08:50,1.3,0.090,ND
2018/03/06,09:00,1.4,0.094,ND
2018/03/06,09:10,1.4,0.094,ND
2018/03/06,09:20,1.4,0.093,ND
2018/03/06,09:30,1.4,0.089,ND
2018/03/06,09:40,1.4,0.076,ND
2018/03/06,09:50,1.4,0.072,10
2018/03/06,10:00,1.4,0.076,10
2018/03/06,10:10,1.4,0.065,13
2018/03/06,10:20,1.5,0.070,12
2018/03/06,10:30,1.4,0.074,9.9
2018/03/06,10:40,1.4,0.083,ND
2018/03/06,10:50,1.4,0.081,ND
2018/03/06,11:00,1.4,0.093,ND
2018/03/06,11:10,1.4,0.11,ND
2018/03/06,11:20,1.4,0.10,ND
2018/03/06,11:30,1.4,0.11,ND
2018/03/06,11:40,1.4,0.10,ND
2018/03/06,11:50,1.4,0.11,ND
2018/03/06,12:00,1.4,0.094,ND
2018/03/06,12:10,1.4,0.096,ND
2018/03/06,12:20,1.4,0.090,ND
2018/03/06,12:30,1.5,0.088,10
2018/03/06,12:40,1.4,0.088,9.3
2018/03/06,12:50,1.4,0.086,ND
2018/03/06,13:00,1.4,0.092,ND
2018/03/06,13:10,1.4,0.091,ND
2018/03/06,13:20,1.4,0.087,ND
2018/03/06,13:30,1.4,0.073,ND
2018/03/06,13:40,1.4,0.077,ND
2018/03/06,13:50,1.3,0.078,ND
2018/03/06,14:00,1.3,0.082,9.6
2018/03/06,14:10,1.3,0.084,ND
2018/03/06,14:20,1.3,0.070,ND
2018/03/06,14:30,1.3,0.086,ND
2018/03/06,14:40,1.3,0.079,ND
2018/03/06,14:50,1.3,0.074,ND
2018/03/06,15:00,1.3,0.072,ND
2018/03/06,15:10,1.3,0.061,ND
2018/03/06,15:20,1.3,0.065,ND
2018/03/06,15:30,1.3,0.065,ND
2018/03/06,15:40,1.3,0.058,ND
2018/03/06,15:50,1.4,0.046,ND
2018/03/06,16:00,1.4,0.041,ND
2018/03/06,16:10,1.3,0.031,ND
2018/03/06,16:20,1.3,0.037,ND
2018/03/06,16:30,1.3,0.063,ND
2018/03/06,16:40,1.3,0.060,ND
2018/03/06,16:50,1.3,0.075,ND
2018/03/06,17:00,1.3,0.082,ND
2018/03/06,17:10,1.3,0.077,ND
2018/03/06,17:20,1.3,0.089,ND
2018/03/06,17:30,1.3,0.077,ND
2018/03/06,17:40,1.2,0.091,ND
2018/03/06,17:50,1.2,0.092,ND
2018/03/06,18:00,1.2,0.091,ND
2018/03/06,18:10,1.2,0.10,ND
2018/03/06,18:20,1.2,0.097,ND
2018/03/06,18:30,1.2,0.097,ND
2018/03/06,18:40,1.2,0.093,ND
2018/03/06,18:50,1.3,0.088,ND
2018/03/06,19:00,1.3,0.088,ND
2018/03/06,19:10,1.3,0.083,ND
2018/03/06,19:20,1.3,0.085,ND
2018/03/06,19:30,1.3,0.090,ND
2018/03/06,19:40,1.3,0.087,ND
2018/03/06,19:50,1.3,0.092,ND
2018/03/06,20:00,1.3,0.097,ND
2018/03/06,20:10,1.3,0.10,ND
2018/03/06,20:20,1.3,0.092,ND
2018/03/06,20:30,1.3,0.085,ND
2018/03/06,20:40,1.4,0.088,ND
2018/03/06,20:50,1.4,0.090,ND
2018/03/06,21:00,1.4,0.090,ND
2018/03/06,21:10,1.4,0.090,ND
2018/03/06,21:20,1.4,0.083,ND
2018/03/06,21:30,1.4,0.088,ND
2018/03/06,21:40,1.4,0.077,ND
2018/03/06,21:50,1.4,0.075,ND
2018/03/06,22:00,1.4,0.068,ND
2018/03/06,22:10,1.4,0.058,ND
2018/03/06,22:20,1.5,0.064,ND
2018/03/06,22:30,1.5,0.066,ND
2018/03/06,22:40,1.4,0.071,ND
2018/03/06,22:50,1.4,0.082,ND
2018/03/06,23:00,1.4,0.078,ND
2018/03/06,23:10,1.4,0.096,ND
2018/03/06,23:20,1.4,0.095,ND
2018/03/06,23:30,1.4,0.091,ND
2018/03/06,23:40,1.4,0.086,ND
2018/03/06,23:50,1.4,0.080,ND
